TimeMDT,TemperatureF,Dew PointF,Humidity,Sea Level PressureIn,VisibilityMPH,Wind Direction,Wind SpeedMPH,Gust SpeedMPH,PrecipitationIn,Events,Conditions,WindDirDegrees,DateUTC
12:15 AM,42.8,41.0,93,30.12,10.0,West,4.6,-,N/A,,Overcast,280,2012-10-28 06:15:00
12:35 AM,42.8,41.0,93,30.12,10.0,Calm,Calm,-,N/A,,Overcast,0,2012-10-28 06:35:00
12:55 AM,42.8,41.0,93,30.12,10.0,West,3.5,-,N/A,,Overcast,280,2012-10-28 06:55:00
1:15 AM,42.8,41.0,93,30.13,10.0,West,5.8,-,N/A,,Overcast,280,2012-10-28 07:15:00
1:35 AM,42.8,41.0,93,30.12,10.0,Calm,Calm,-,N/A,,Overcast,0,2012-10-28 07:35:00
1:55 AM,42.8,41.0,93,30.11,10.0,Calm,Calm,-,N/A,,Overcast,0,2012-10-28 07:55:00
2:15 AM,42.8,41.0,93,30.12,10.0,Calm,Calm,-,N/A,,Overcast,0,2012-10-28 08:15:00
2:35 AM,41.0,41.0,100,30.11,10.0,Calm,Calm,-,N/A,,Overcast,0,2012-10-28 08:35:00
2:55 AM,41.0,41.0,100,30.10,10.0,Calm,Calm,-,N/A,,Overcast,0,2012-10-28 08:55:00
3:15 AM,41.0,41.0,100,30.11,10.0,Calm,Calm,-,N/A,,Overcast,0,2012-10-28 09:15:00
3:35 AM,41.0,41.0,100,30.11,10.0,WNW,3.5,-,N/A,,Mostly Cloudy,290,2012-10-28 09:35:00
3:55 AM,41.0,41.0,100,30.11,10.0,West,3.5,-,N/A,,Mostly Cloudy,270,2012-10-28 09:55:00
4:15 AM,41.0,41.0,100,30.10,8.0,Calm,Calm,-,N/A,,Mostly Cloudy,0,2012-10-28 10:15:00
4:35 AM,39.2,39.2,100,30.10,9.0,Calm,Calm,-,N/A,,Mostly Cloudy,0,2012-10-28 10:35:00
4:55 AM,41.0,41.0,100,30.11,10.0,Calm,Calm,-,N/A,,Overcast,0,2012-10-28 10:55:00
5:15 AM,41.0,41.0,100,30.11,10.0,Calm,Calm,-,N/A,,Overcast,0,2012-10-28 11:15:00
5:35 AM,41.0,41.0,100,30.12,10.0,West,3.5,-,N/A,,Overcast,270,2012-10-28 11:35:00
5:55 AM,41.0,41.0,100,30.12,10.0,WNW,3.5,-,N/A,,Mostly Cloudy,290,2012-10-28 11:55:00
6:15 AM,41.0,41.0,100,30.12,10.0,Calm,Calm,-,N/A,,Overcast,0,2012-10-28 12:15:00
6:35 AM,39.2,39.2,100,30.10,10.0,South,3.5,-,N/A,,Mostly Cloudy,170,2012-10-28 12:35:00
6:55 AM,39.2,39.2,100,30.10,8.0,Calm,Calm,-,N/A,,Overcast,0,2012-10-28 12:55:00
7:15 AM,39.2,39.2,100,30.11,8.0,Calm,Calm,-,N/A,,Overcast,0,2012-10-28 13:15:00
7:55 AM,39.2,39.2,100,30.10,8.0,Calm,Calm,-,N/A,,Overcast,0,2012-10-28 13:55:00
8:15 AM,41.0,41.0,100,30.09,9.0,Calm,Calm,-,N/A,,Overcast,0,2012-10-28 14:15:00
8:55 AM,41.0,41.0,100,30.12,8.0,Calm,Calm,-,N/A,,Overcast,0,2012-10-28 14:55:00
9:15 AM,41.0,41.0,100,30.12,9.0,Calm,Calm,-,N/A,,Overcast,0,2012-10-28 15:15:00
9:35 AM,41.0,41.0,100,30.11,10.0,WSW,3.5,-,N/A,,Overcast,240,2012-10-28 15:35:00
9:55 AM,42.8,42.8,100,30.11,9.0,Calm,Calm,-,N/A,,Overcast,0,2012-10-28 15:55:00
10:15 AM,44.6,42.8,93,30.12,10.0,Calm,Calm,-,N/A,,Overcast,0,2012-10-28 16:15:00
10:35 AM,44.6,41.0,87,30.12,10.0,Calm,Calm,-,N/A,,Overcast,0,2012-10-28 16:35:00
10:55 AM,44.6,41.0,87,30.11,10.0,North,3.5,-,N/A,,Overcast,360,2012-10-28 16:55:00
11:15 AM,44.6,42.8,93,30.12,9.0,Calm,Calm,-,N/A,,Overcast,0,2012-10-28 17:15:00
11:35 AM,44.6,44.6,100,30.12,10.0,NNE,6.9,-,N/A,,Overcast,20,2012-10-28 17:35:00
11:55 AM,44.6,44.6,100,30.12,5.0,NNE,3.5,-,N/A,,Overcast,30,2012-10-28 17:55:00
12:15 PM,44.6,44.6,100,30.12,7.0,Calm,Calm,-,N/A,,Mostly Cloudy,0,2012-10-28 18:15:00
12:35 PM,46.4,46.4,100,30.11,5.0,Calm,Calm,-,N/A,,Mostly Cloudy,0,2012-10-28 18:35:00
12:55 PM,46.4,46.4,100,30.10,7.0,Calm,Calm,-,N/A,,Mostly Cloudy,0,2012-10-28 18:55:00
1:15 PM,46.4,44.6,93,30.10,9.0,West,3.5,-,N/A,,Overcast,280,2012-10-28 19:15:00
1:35 PM,48.2,46.4,93,30.09,9.0,Calm,Calm,-,N/A,,Mostly Cloudy,0,2012-10-28 19:35:00
1:55 PM,48.2,46.4,93,30.08,10.0,Calm,Calm,-,N/A,,Overcast,0,2012-10-28 19:55:00
2:15 PM,48.2,46.4,93,30.07,10.0,Calm,Calm,-,N/A,,Overcast,0,2012-10-28 20:15:00
2:35 PM,50.0,46.4,87,30.06,10.0,Calm,Calm,-,N/A,,Overcast,0,2012-10-28 20:35:00
2:55 PM,50.0,46.4,87,30.05,10.0,Calm,Calm,-,N/A,,Overcast,0,2012-10-28 20:55:00
3:15 PM,51.8,46.4,82,30.04,10.0,Calm,Calm,-,N/A,,Mostly Cloudy,0,2012-10-28 21:15:00
3:35 PM,53.6,46.4,77,30.04,10.0,North,6.9,-,N/A,,Mostly Cloudy,350,2012-10-28 21:35:00
3:55 PM,51.8,48.2,88,30.04,10.0,North,5.8,-,N/A,,Scattered Clouds,360,2012-10-28 21:55:00
4:15 PM,51.8,48.2,88,30.04,10.0,NNW,6.9,-,N/A,,Mostly Cloudy,330,2012-10-28 22:15:00
4:35 PM,50.0,48.2,94,30.04,10.0,North,5.8,-,N/A,,Overcast,350,2012-10-28 22:35:00
4:55 PM,50.0,48.2,94,30.05,9.0,NW,6.9,-,N/A,,Overcast,320,2012-10-28 22:55:00
5:15 PM,50.0,48.2,94,30.04,9.0,NW,8.1,-,N/A,,Overcast,320,2012-10-28 23:15:00
5:35 PM,50.0,50.0,100,30.04,9.0,WNW,6.9,-,N/A,,Overcast,300,2012-10-28 23:35:00
5:55 PM,50.0,50.0,100,30.04,9.0,WNW,6.9,-,N/A,,Overcast,300,2012-10-28 23:55:00
6:15 PM,50.0,48.2,94,30.04,7.0,West,6.9,-,N/A,,Overcast,280,2012-10-29 00:15:00
6:35 PM,48.2,48.2,100,30.04,8.0,WNW,6.9,-,N/A,,Overcast,290,2012-10-29 00:35:00
6:55 PM,48.2,48.2,100,30.04,8.0,West,4.6,-,N/A,,Overcast,270,2012-10-29 00:55:00
7:15 PM,48.2,48.2,100,30.04,8.0,West,5.8,-,N/A,,Overcast,260,2012-10-29 01:15:00
7:35 PM,48.2,48.2,100,30.04,8.0,West,5.8,-,N/A,,Overcast,270,2012-10-29 01:35:00
8:15 PM,46.4,46.4,100,30.04,8.0,Calm,Calm,-,N/A,,Mostly Cloudy,0,2012-10-29 02:15:00
8:55 PM,46.4,46.4,100,30.04,8.0,NW,3.5,-,N/A,,Clear,320,2012-10-29 02:55:00
9:15 PM,46.4,46.4,100,30.04,8.0,Calm,Calm,-,N/A,,Clear,0,2012-10-29 03:15:00
9:35 PM,44.6,44.6,100,30.04,5.0,Calm,Calm,-,N/A,,Mostly Cloudy,0,2012-10-29 03:35:00
9:55 PM,44.6,44.6,100,30.05,5.0,Calm,Calm,-,N/A,,Mostly Cloudy,0,2012-10-29 03:55:00
10:15 PM,44.6,44.6,100,30.04,3.0,Calm,Calm,-,N/A,,Mostly Cloudy,0,2012-10-29 04:15:00
10:55 PM,44.6,44.6,100,30.05,3.0,Calm,Calm,-,N/A,,Overcast,0,2012-10-29 04:55:00
11:15 PM,44.6,44.6,100,30.04,3.0,Calm,Calm,-,N/A,,Mostly Cloudy,0,2012-10-29 05:15:00
11:35 PM,44.6,44.6,100,30.05,5.0,NW,3.5,-,N/A,,Mostly Cloudy,310,2012-10-29 05:35:00
11:55 PM,44.6,44.6,100,30.05,7.0,Calm,Calm,-,N/A,,Overcast,0,2012-10-29 05:55:00